Location: Hains Lake
(37.8540°N, 99.8578°W)
Time: 04:34:19
(UTC+00:00)

Vanguard 2 Rocket - Pass Details

Date: 26 April 2021
Orbit: 553 x 3326 km, 32.9° (Epoch: 07 May)

Event Time Altitude Azimuth Distance (km) Brightness Sun altitude
Rises 19:13:15 0° 251° (WSW) 5,680 11.2 64.6°
Reaches altitude 10° 19:16:27 10° 250° (WSW) 4,976 11.1 64.4°
Maximum altitude 19:32:17 73° 169° (S) 3,230 11.5 63.0°
Drops below altitude 10° 19:52:41 10° 90° (E) 6,182 11.1 60.7°
Sets 19:57:12 0° 89° (E) 7,054 11.2 60.1°
